This demonstration page uses our WeatherBlox Daily Observations layout. Learn more.

Left ArrowRight Arrow

Hourly Observations for May 19, 2020

Temp ( °F °C ) Dew Point ( °F °C ) Humidity (%) Winds ( mph kmh ) Pressure ( in mb ) Visibility ( mi km ) Precip ( " mm )
12:52 am 00:52 Cloudy 56 13.3 48 8.9 75 75 N 9 15 29.90 1012 10 16 0.00 0.00
1:52 am 01:52 Cloudy 55 12.8 49 9.4 80 80 NNW 5 7 29.88 1012 10 16 0.00 0.00
2:52 am 02:52 Cloudy 54 12.2 49 9.4 83 83 NW 5 7 29.87 1012 10 16 0.00 0.00
3:52 am 03:52 Cloudy 54 12.2 50 10 87 87 NW 5 7 29.87 1012 10 16 0.00 0.00
4:52 am 04:52 Cloudy 54 12.2 51 10.6 90 90 WNW 5 7 29.87 1012 10 16 0.00 0.00
5:42 am 05:42 Cloudy 54 12.2 51 10.6 90 90 NW 7 11 29.89 1012 10 16 0.00 0.00
5:52 am 05:52 Cloudy 54 12.2 51 10.6 90 90 NW 6 9 29.88 1012 10 16 0.00 0.00
6:23 am 06:23 Cloudy 54 12.2 51 10.6 90 90 NW 7 11 29.90 1013 10 16 0.00 0.00
6:52 am 06:52 Cloudy 54 12.2 51 10.6 90 90 NNW 10 17 29.90 1013 10 16 0.00 0.00
7:09 am 07:09 Cloudy 54 12.2 51 10.6 90 90 NNW 10 17 29.91 1013 10 16 0.00 0.00
7:31 am 07:31 Cloudy 54 12.2 52 11.1 93 93 NNW 8 13 29.92 1013 10 16 0.00 0.00
7:52 am 07:52 Cloudy 55 12.8 52 11.1 90 90 NNW 10 17 29.91 1013 10 16 0.00 0.00
8:52 am 08:52 Cloudy 57 13.9 53 11.7 87 87 N 10 17 29.92 1013 10 16 0.00 0.00
9:35 am 09:35 Cloudy 58 14.4 53 11.7 84 84 N 9 15 29.93 1014 10 16 0.00 0.00
9:52 am 09:52 Cloudy 58 14.4 52 11.1 81 81 N 9 15 29.93 1014 10 16 0.00 0.00
9:59 am 09:59 Cloudy 58 14.4 52 11.1 81 81 N 9 15 29.93 1014 10 16 0.00 0.00
10:39 am 10:39 Cloudy 60 15.6 53 11.7 78 78 NNW 7 11 29.91 1013 10 16 0.00 0.00
10:48 am 10:48 Cloudy 61 16 52 11 72 72 N 7 11 29.92 1013 10 16 0.00 0.00
10:52 am 10:52 Cloudy 59 15 52 11.1 78 78 N 8 13 29.92 1013 10 16 0.00 0.00
11:52 am 11:52 Cloudy 61 16.1 54 12.2 78 78 N 9 15 29.93 1013 10 16 0.00 0.00
12:52 pm 12:52 Cloudy 62 16.7 53 11.7 73 73 NE 10 17 29.92 1013 10 16 0.00 0.00
1:06 pm 13:06 Cloudy 61 16.1 53 11.7 75 75 N 10 17 29.92 1013 10 16 0.00 0.00
1:22 pm 13:22 Cloudy 63 17.2 54 12.2 73 73 N 10 17 29.92 1013 10 16 0.00 0.00
1:52 pm 13:52 Cloudy 62 16.7 54 12.2 75 75 N 12 19 29.91 1013 10 16 0.00 0.00
2:01 pm 14:01 Cloudy 63 17.2 55 12.8 76 76 N 8 13 29.91 1013 10 16 0.00 0.00
2:52 pm 14:52 Cloudy 65 18.3 54 12.2 68 68 N 9 15 29.91 1013 10 16 0.00 0.00
3:52 pm 15:52 Cloudy 66 18.9 54 12.2 65 65 NNE 10 17 29.89 1012 10 16 0.00 0.00
4:52 pm 16:52 Mostly Cloudy 66 18.9 54 12.2 65 65 N 8 13 29.88 1012 10 16 0.00 0.00
5:52 pm 17:52 Cloudy 64 17.8 53 11.7 68 68 NNE 9 15 29.88 1012 10 16 0.00 0.00
6:52 pm 18:52 Cloudy 64 17.8 54 12.2 70 70 NNE 10 17 29.89 1012 10 16 0.00 0.00
7:52 pm 19:52 Sunny 61 16.1 54 12.2 78 78 N 7 11 29.91 1013 10 16 0.00 0.00
8:52 pm 20:52 Cloudy 60 15.6 54 12.2 80 80 N 7 11 29.91 1013 10 16 0.00 0.00
9:52 pm 21:52 Mostly Clear 59 15 54 12.2 83 83 NE 8 13 29.93 1013 10 16 0.00 0.00
10:52 pm 22:52 Clear 57 13.9 53 11.7 87 87 Calm 29.93 1014 10 16 0.00 0.00
11:52 pm 23:52 Clear 55 12.8 53 11.7 93 93 N 3 6 29.93 1014 10 16 0.00 0.00

Powered by AerisWeather